Find OneWeb SL0027

NORAD ID: 45432 Int'l Des: 2020-020 Owner: ONEWEB Country: UK Constellation: oneweb operational
LEOCIRCULARPOLARONEWEB_TYPE

Live Position

Loading 3D Globe...

About OneWeb SL0027

Description loading...

Upcoming Passes

Passes for default location (London). Set your location on the main map for personalized predictions.

Altitude History

Loading altitude history...

Two-Line Element Set

1 45432U 20020J 26124.64257616 .00000016 00000-0 68229-5 0 9993
2 45432 87.9184 14.5016 0001435 76.7780 283.3511 13.17649855300625
Epoch: May 4, 2026 • Age: 27 hours

Current Status

Altitude 1200.8 km
Velocity 7.25 km/s
Sub-Earth Point -16.46°S, 62.34°E
Launch Date Mar 21, 2020
Age 6.1 years
Type internet

Technical Details

Classification Payload
Mass 148.00 kg
Dry Mass 140.00 kg
Total Mass 148.00 kg
Length 1.30 m
Diameter 1.00 m
Span 5.00 m
Shape Trapezoid+2 pan
Manufacturer ONEWUS
Bus Type ARROW
Phase Status In Orbit
Owner/State ONEWEB/UK

Most Searched